This is the latest recevied weather packets stored in our database for station/object KM4NDN. If no packets are shown the sender has not sent any weather packets the latest 1 day(s).
| Time | Temp. | Humidity | Pressure | Rain* | Wind** | Luminosity | Snow |
|---|---|---|---|---|---|---|---|
| 1778057274 | 6.67° C | 94% | 1007.4 hPa | 0 mm | - | 0 W/m² | - |
| 1778056063 | 6.67° C | 94% | 1007.2 hPa | 0 mm | - | 0 W/m² | - |
| 1778055456 | 6.67° C | 94% | 1006.9 hPa | 1.27 mm | - | 0 W/m² | - |
| 1778055153 | 6.67° C | 93% | 1006.6 hPa | 0 mm | - | 0 W/m² | - |
| 1778054547 | 6.67° C | 92% | 1006.9 hPa | 1.78 mm | - | 0 W/m² | - |
| 1778053942 | 6.67° C | 91% | 1006.7 hPa | 1.27 mm | - | 0 W/m² | - |
| 1778053034 | 7.22° C | 90% | 1007.4 hPa | 1.78 mm | - | 0 W/m² | - |
| 1778052731 | 7.22° C | 90% | 1007.4 hPa | 0 mm | - | 0 W/m² | - |
| 1778052428 | 7.22° C | 91% | 1007.6 hPa | 1.27 mm | - | 0 W/m² | - |
| 1778052126 | 7.22° C | 91% | 1007.5 hPa | 1.27 mm | - | 0 W/m² | - |
| 1778051823 | 7.22° C | 92% | 1007.5 hPa | 0 mm | - | 0 W/m² | - |
| 1778051521 | 7.22° C | 93% | 1007.2 hPa | 1.78 mm | - | 0 W/m² | - |
| 1778050309 | 7.78° C | 95% | 1007.1 hPa | 1.27 mm | - | 0 W/m² | - |
| 1778050006 | 7.78° C | 95% | 1007.1 hPa | 1.78 mm | - | 0 W/m² | - |
| 1778049400 | 7.78° C | 96% | 1007.3 hPa | 1.78 mm | - | 0 W/m² | - |
| 1778049096 | 7.78° C | 96% | 1007.3 hPa | 1.78 mm | - | 0 W/m² | - |
| 1778048795 | 7.78° C | 96% | 1007.1 hPa | 0 mm | - | 0 W/m² | - |
| 1778047280 | 8.33° C | 97% | 1006.6 hPa | 1.27 mm | - | 0 W/m² | - |
| 1778046978 | 8.33° C | 97% | 1007.1 hPa | 3.05 mm | - | 0 W/m² | - |
| 1778046674 | 8.33° C | 97% | 1007 hPa | 3.05 mm | - | 0 W/m² | - |
| 1778046067 | 8.33° C | 97% | 1007.2 hPa | 3.05 mm | - | 0 W/m² | - |
| 1778045161 | 8.33° C | 97% | 1007.5 hPa | 0 mm | - | 0 W/m² | - |
| 1778044859 | 8.33° C | 97% | 1007.2 hPa | 1.78 mm | - | 0 W/m² | - |
| 1778044252 | 8.33° C | 97% | 1007 hPa | 0 mm | - | 0 W/m² | - |
| 1778043950 | 8.33° C | 97% | 1007.1 hPa | 1.27 mm | - | 0 W/m² | - |
* Rain latest hour (hover to see other rain measurements)
** Current wind speed in m/s (hover to see current wind gust speed)